Date,Time,Wetness (Wet Dry or Ice),Wind Speed (m/s),Temperature (C),Humidity (%),Pressure (mb),Radiation (W/m^2)
2020-02-02,00:10:00,DRY,4.23,11.50,10.0,778.33,1.2
2020-02-02,00:15:00,DRY,4.70,11.20,10.0,778.00,1.9
2020-02-02,00:20:00,DRY,3.93,11.63,9.3,778.00,1.0
2020-02-02,00:25:00,DRY,4.25,11.70,9.0,778.00,0.9
2020-02-02,00:30:00,DRY,4.17,11.57,9.0,778.00,0.9
2020-02-02,00:35:00,DRY,3.30,11.75,9.0,778.00,1.1
2020-02-02,00:40:00,DRY,5.10,10.90,10.0,778.00,1.1
2020-02-02,00:45:00,DRY,4.55,11.20,9.0,778.00,1.3
2020-02-02,00:50:00,DRY,4.23,10.93,10.0,778.00,1.2
2020-02-02,00:55:00,DRY,4.35,10.85,10.0,778.00,1.1
2020-02-02,01:00:00,DRY,4.43,11.40,9.3,778.00,1.0
2020-02-02,01:05:00,DRY,4.85,11.45,10.0,778.00,1.0
2020-02-02,01:10:00,DRY,4.13,11.40,9.3,778.00,1.1
2020-02-02,01:15:00,DRY,4.00,11.20,10.0,778.00,1.2
2020-02-02,01:20:00,DRY,3.77,11.13,10.0,778.00,0.6
2020-02-02,01:25:00,DRY,4.45,11.00,10.0,778.00,0.9
2020-02-02,01:30:00,DRY,4.80,11.07,9.3,778.00,1.6
2020-02-02,01:35:00,DRY,3.10,11.05,9.0,778.00,2.7
2020-02-02,01:40:00,DRY,3.40,11.23,8.0,778.00,1.2
2020-02-02,01:45:00,DRY,2.95,11.15,8.0,778.00,0.8
2020-02-02,01:50:00,DRY,3.63,11.17,7.0,778.00,1.7
2020-02-02,01:55:00,DRY,4.50,11.10,7.5,778.00,1.2
2020-02-02,02:00:00,DRY,4.13,11.30,7.3,778.00,1.0
2020-02-02,02:05:00,DRY,3.35,11.05,7.5,778.00,1.6
2020-02-02,02:10:00,DRY,3.30,11.03,8.0,778.00,0.9
2020-02-02,02:15:00,DRY,4.50,11.10,8.0,778.00,1.2
2020-02-02,02:20:00,DRY,3.10,11.00,8.0,778.00,0.9
2020-02-02,02:25:00,DRY,2.75,10.85,9.0,778.00,1.2
2020-02-02,02:30:00,DRY,2.67,10.93,9.0,778.00,0.9
2020-02-02,02:35:00,DRY,4.60,11.10,9.0,778.00,1.5
2020-02-02,02:40:00,DRY,3.40,11.10,8.0,778.00,0.9
2020-02-02,02:45:00,DRY,3.95,11.20,7.0,778.00,1.1
2020-02-02,02:50:00,DRY,3.63,11.17,7.0,778.00,0.9
2020-02-02,02:55:00,DRY,4.25,11.30,6.0,778.00,1.2
2020-02-02,03:00:00,DRY,3.30,11.30,6.3,778.00,1.6
2020-02-02,03:05:00,DRY,2.95,11.05,6.5,778.00,0.9
2020-02-02,03:10:00,DRY,4.60,11.50,6.0,778.00,1.1
2020-02-02,03:15:00,DRY,3.30,11.45,6.0,778.00,1.0
2020-02-02,03:20:00,DRY,3.60,11.17,7.0,778.00,1.2
2020-02-02,03:25:00,DRY,3.15,11.15,6.5,778.00,0.8
2020-02-02,03:30:00,DRY,3.20,11.50,7.0,777.67,1.0
2020-02-02,03:35:00,DRY,3.40,10.95,7.0,777.50,2.2
2020-02-02,03:40:00,DRY,2.97,11.30,7.0,778.00,1.7
2020-02-02,03:45:00,DRY,2.20,11.30,7.0,778.00,1.6
2020-02-02,03:50:00,DRY,2.70,11.17,7.0,778.00,1.0
2020-02-02,03:55:00,DRY,3.55,11.40,7.0,777.50,1.2
2020-02-02,04:00:00,DRY,1.77,11.63,7.0,777.00,1.3
2020-02-02,04:05:00,DRY,3.95,11.45,7.0,777.50,1.5
2020-02-02,04:10:00,DRY,2.73,11.70,7.3,777.00,1.0
2020-02-02,04:15:00,DRY,3.20,11.40,7.0,777.00,1.2
2020-02-02,04:20:00,DRY,3.37,11.50,7.3,777.00,1.1
2020-02-02,04:25:00,DRY,4.85,11.30,7.0,777.00,1.1
2020-02-02,04:30:00,DRY,4.43,10.97,7.3,777.00,1.1
2020-02-02,04:35:00,DRY,4.95,10.30,8.0,777.00,1.1
2020-02-02,04:40:00,DRY,4.93,10.43,8.3,777.00,1.2
2020-02-02,04:45:00,DRY,4.40,11.00,9.0,777.00,1.1
2020-02-02,04:50:00,DRY,3.83,11.47,8.3,777.00,1.8
2020-02-02,04:55:00,DRY,5.40,11.15,9.0,777.00,1.4
2020-02-02,05:00:00,DRY,4.83,11.03,9.0,777.00,0.9
2020-02-02,05:05:00,DRY,3.55,10.95,9.0,777.00,1.2
2020-02-02,05:10:00,DRY,4.00,11.30,8.3,777.00,1.3
2020-02-02,05:15:00,DRY,3.90,12.10,8.0,777.00,1.8
2020-02-02,05:20:00,DRY,3.63,12.17,8.0,777.00,1.3
2020-02-02,05:25:00,DRY,3.80,12.10,8.0,777.00,0.8
2020-02-02,05:30:00,DRY,3.67,11.47,8.3,777.00,1.5
2020-02-02,05:35:00,DRY,4.40,11.80,9.0,777.00,1.0
2020-02-02,05:40:00,DRY,3.83,11.87,8.3,777.00,1.1
2020-02-02,05:45:00,DRY,4.30,11.75,8.5,777.00,1.4
2020-02-02,05:50:00,DRY,4.03,11.97,8.3,777.00,1.2
2020-02-02,05:55:00,DRY,3.60,11.90,8.5,777.00,1.2
2020-02-02,06:00:00,DRY,3.27,12.03,8.0,777.00,1.6
2020-02-02,06:05:00,DRY,3.60,12.15,8.0,777.00,1.1
2020-02-02,06:10:00,DRY,2.93,11.93,8.7,777.00,0.3
2020-02-02,06:15:00,DRY,3.25,12.05,8.5,777.00,1.2
2020-02-02,06:20:00,DRY,2.17,12.23,8.0,777.00,1.2
2020-02-02,06:25:00,DRY,2.65,12.15,8.0,777.00,0.4
2020-02-02,06:30:00,DRY,2.30,11.87,8.3,777.00,1.9
2020-02-02,06:35:00,DRY,2.05,11.80,9.0,777.00,0.8
2020-02-02,06:40:00,DRY,2.03,11.90,8.0,777.00,0.5
2020-02-02,06:45:00,DRY,2.00,11.50,8.5,777.00,1.9
2020-02-02,06:50:00,DRY,2.83,11.53,8.3,777.00,0.8
2020-02-02,06:55:00,DRY,2.55,11.50,8.0,777.00,0.8
2020-02-02,07:00:00,DRY,2.40,11.33,8.3,777.00,1.4
2020-02-02,07:05:00,DRY,2.70,11.50,8.0,777.00,0.8
2020-02-02,07:10:00,DRY,2.67,11.40,8.0,777.00,1.1
2020-02-02,07:15:00,DRY,1.90,11.40,8.0,777.00,1.1
2020-02-02,07:20:00,DRY,3.10,11.33,8.0,777.00,2.2
2020-02-02,07:25:00,DRY,3.00,11.25,8.0,777.00,1.8
2020-02-02,07:30:00,DRY,2.80,11.10,8.0,777.00,1.7
2020-02-02,07:35:00,DRY,2.65,11.15,8.0,777.00,1.1
2020-02-02,07:40:00,DRY,3.30,11.03,8.0,777.67,1.4
2020-02-02,07:45:00,DRY,2.95,11.25,8.0,777.50,2.3
2020-02-02,07:50:00,DRY,2.80,11.10,7.0,777.00,2.7
2020-02-02,07:55:00,DRY,3.50,10.90,7.5,777.00,5.0
2020-02-02,08:00:00,DRY,1.90,10.67,7.0,778.00,7.6
2020-02-02,08:05:00,DRY,2.50,10.65,7.0,777.50,10.5
2020-02-02,08:10:00,DRY,2.83,10.50,6.7,777.67,13.2
2020-02-02,08:15:00,DRY,3.35,10.50,6.0,777.00,15.2
2020-02-02,08:20:00,DRY,3.30,10.37,6.0,777.67,17.5
2020-02-02,08:25:00,DRY,4.20,10.40,6.0,777.50,19.8
2020-02-02,08:30:00,DRY,3.93,10.50,5.0,778.00,21.8
2020-02-02,08:35:00,DRY,4.00,10.80,4.5,778.00,105.9
2020-02-02,08:40:00,DRY,3.37,11.07,4.0,778.00,161.5
2020-02-02,08:45:00,DRY,3.10,10.90,4.0,778.00,180.9
2020-02-02,08:50:00,DRY,3.13,11.07,3.7,778.00,201.5
2020-02-02,08:55:00,DRY,4.85,11.20,4.0,778.00,222.2
2020-02-02,09:00:00,DRY,5.23,11.43,4.0,778.00,241.7
2020-02-02,09:05:00,DRY,4.80,11.20,4.5,778.00,262.9
2020-02-02,09:10:00,DRY,3.70,11.07,4.7,777.67,282.5
2020-02-02,09:15:00,DRY,5.35,10.95,6.0,778.00,303.1
2020-02-02,09:20:00,DRY,5.30,10.80,4.7,777.67,322.9
2020-02-02,09:25:00,DRY,5.00,10.65,6.0,777.50,342.6
2020-02-02,09:30:00,DRY,5.17,10.50,6.7,777.67,362.5
2020-02-02,09:35:00,DRY,3.80,10.35,8.0,778.00,382.4
2020-02-02,09:40:00,DRY,5.40,10.20,6.7,777.33,401.3
2020-02-02,09:45:00,DRY,5.10,10.00,7.0,778.00,421.0
2020-02-02,09:50:00,DRY,6.53,9.80,8.3,778.00,438.8
2020-02-02,09:55:00,DRY,7.25,9.65,8.5,778.00,457.6
2020-02-02,10:00:00,DRY,6.23,9.63,9.3,778.00,475.7
2020-02-02,10:05:00,DRY,5.90,9.30,11.5,778.00,494.2
2020-02-02,10:10:00,DRY,4.83,9.20,12.0,778.00,510.5
2020-02-02,10:15:00,DRY,5.70,9.30,12.0,778.00,529.3
2020-02-02,10:20:00,DRY,4.17,9.20,13.7,778.00,545.8
2020-02-02,10:25:00,DRY,4.85,9.50,12.5,778.00,561.0
2020-02-02,10:30:00,DRY,5.17,9.80,10.7,778.00,578.9
2020-02-02,10:35:00,DRY,4.85,9.90,12.0,778.00,593.6
2020-02-02,10:40:00,DRY,6.23,10.07,11.3,778.00,609.5
2020-02-02,10:45:00,DRY,5.25,9.80,12.5,778.00,624.1
2020-02-02,10:50:00,DRY,4.10,9.67,13.3,778.00,639.5
2020-02-02,10:55:00,DRY,5.95,9.60,13.5,778.00,652.1
2020-02-02,11:00:00,DRY,4.60,9.87,13.0,778.00,666.9
2020-02-02,11:05:00,DRY,3.75,9.65,14.0,778.00,681.0
2020-02-02,11:10:00,DRY,4.47,9.67,13.7,778.00,692.7
2020-02-02,11:15:00,DRY,4.60,9.60,14.0,778.00,705.1
2020-02-02,11:20:00,DRY,5.23,9.67,14.0,778.00,716.7
2020-02-02,11:25:00,DRY,5.45,9.90,14.0,778.00,728.6
2020-02-02,11:30:00,DRY,5.17,9.97,14.3,778.00,739.8
2020-02-02,11:35:00,DRY,5.20,10.05,14.0,778.00,750.2
2020-02-02,11:40:00,DRY,4.97,10.03,14.0,778.00,760.4
2020-02-02,11:45:00,DRY,5.50,10.10,14.5,778.00,770.7
2020-02-02,11:50:00,DRY,4.93,10.33,14.7,778.00,779.9
2020-02-02,11:55:00,DRY,6.00,10.25,15.0,778.00,787.2
2020-02-02,12:00:00,DRY,6.67,10.00,15.7,778.00,795.6
2020-02-02,12:05:00,DRY,5.05,9.95,15.5,778.00,803.7
2020-02-02,12:10:00,DRY,4.97,10.30,15.3,778.00,810.8
2020-02-02,12:15:00,DRY,5.30,10.30,15.5,778.00,817.0
2020-02-02,12:20:00,DRY,5.87,10.27,16.0,778.00,824.6
2020-02-02,12:25:00,DRY,4.95,10.15,17.0,778.00,830.7
2020-02-02,12:30:00,DRY,5.53,10.23,16.7,778.00,834.5
2020-02-02,12:35:00,DRY,5.70,10.20,17.0,778.00,840.0
2020-02-02,12:40:00,DRY,4.53,10.13,18.0,778.00,844.3
2020-02-02,12:45:00,DRY,6.20,10.05,19.0,778.00,848.4
2020-02-02,12:50:00,DRY,4.70,10.25,20.0,778.00,852.9
2020-02-02,12:55:00,DRY,5.55,10.35,20.5,778.00,855.0
2020-02-02,13:00:00,DRY,5.07,10.27,21.3,778.00,857.0
2020-02-02,13:05:00,DRY,5.30,10.15,22.5,778.00,858.3
2020-02-02,13:10:00,DRY,4.33,10.03,23.0,778.00,860.5
2020-02-02,13:15:00,DRY,5.50,10.10,22.5,778.00,861.2
2020-02-02,13:20:00,DRY,3.43,10.03,22.3,778.00,863.2
2020-02-02,13:25:00,DRY,4.35,10.30,23.0,778.00,863.5
2020-02-02,13:30:00,DRY,4.90,10.00,23.0,778.00,866.2
2020-02-02,13:35:00,DRY,3.60,10.80,23.0,778.00,862.0
2020-02-02,13:40:00,DRY,3.53,10.57,23.0,778.00,859.4
2020-02-02,13:45:00,DRY,5.10,10.60,23.5,778.00,858.4
2020-02-02,13:50:00,DRY,5.40,10.33,24.3,777.00,857.6
2020-02-02,13:55:00,DRY,5.90,10.25,25.5,777.50,852.2
2020-02-02,14:00:00,DRY,5.60,10.10,25.3,777.00,848.8
2020-02-02,14:05:00,DRY,4.65,10.20,25.5,777.00,845.4
2020-02-02,14:10:00,DRY,4.17,10.27,24.7,777.00,840.8
2020-02-02,14:15:00,DRY,5.25,10.10,25.0,777.00,836.0
2020-02-02,14:20:00,DRY,4.53,9.97,25.7,777.00,829.8
2020-02-02,14:25:00,DRY,4.35,10.30,26.0,777.00,822.5
2020-02-02,14:30:00,DRY,3.83,10.33,25.3,777.00,817.2
2020-02-02,14:35:00,DRY,2.90,9.80,26.5,777.00,810.8
2020-02-02,14:40:00,DRY,3.73,10.03,25.7,777.00,803.5
2020-02-02,14:45:00,DRY,5.25,9.90,25.5,777.00,795.2
2020-02-02,14:50:00,DRY,5.77,9.83,26.3,777.00,785.6
2020-02-02,14:55:00,DRY,5.20,9.95,26.0,777.00,776.2
2020-02-02,15:00:00,DRY,4.33,9.67,26.7,777.00,766.7
2020-02-02,15:05:00,DRY,4.15,9.75,25.5,777.00,756.5
2020-02-02,15:10:00,DRY,4.03,9.90,25.0,777.00,746.8
2020-02-02,15:15:00,DRY,4.55,10.00,24.5,777.00,736.0
2020-02-02,15:20:00,DRY,5.17,9.73,24.0,777.00,724.1
2020-02-02,15:25:00,DRY,5.30,9.85,24.5,777.00,713.7
2020-02-02,15:30:00,DRY,4.67,9.77,23.7,777.00,700.0
2020-02-02,15:35:00,DRY,4.95,9.45,26.0,777.00,688.5
2020-02-02,15:40:00,DRY,4.33,9.63,24.7,777.00,674.5
2020-02-02,15:45:00,DRY,3.70,9.60,21.5,777.00,662.2
2020-02-02,15:50:00,DRY,4.43,9.57,23.3,777.00,646.5
2020-02-02,15:55:00,DRY,3.65,9.40,20.5,777.00,633.5
2020-02-02,16:00:00,DRY,4.83,9.80,20.3,777.00,617.8
2020-02-02,16:05:00,DRY,3.70,9.50,19.5,777.00,602.8
2020-02-02,16:10:00,DRY,5.77,9.70,17.0,777.00,587.1
2020-02-02,16:15:00,DRY,4.25,9.40,21.5,777.00,571.1
2020-02-02,16:20:00,DRY,4.37,9.50,21.3,777.00,556.0
2020-02-02,16:25:00,DRY,4.65,9.75,18.0,777.00,538.2
2020-02-02,16:30:00,DRY,5.43,9.30,23.0,777.00,520.9
2020-02-02,16:35:00,DRY,4.40,9.10,24.0,777.00,504.1
2020-02-02,16:40:00,DRY,3.90,9.37,22.7,777.00,486.5
2020-02-02,16:45:00,DRY,4.60,9.25,21.5,777.00,467.7
2020-02-02,16:50:00,DRY,4.63,9.23,22.3,777.00,449.4
2020-02-02,16:55:00,DRY,4.65,9.10,22.0,777.00,430.6
2020-02-02,17:00:00,DRY,4.23,9.27,20.0,777.00,411.7
2020-02-02,17:05:00,DRY,4.30,9.20,20.0,777.00,392.1
2020-02-02,17:10:00,DRY,5.20,9.17,22.0,777.00,372.4
2020-02-02,17:15:00,DRY,5.75,9.20,20.5,777.00,352.5
2020-02-02,17:20:00,DRY,4.40,9.00,22.0,777.00,332.4
2020-02-02,17:25:00,DRY,5.70,9.40,17.0,777.00,311.9
2020-02-02,17:30:00,DRY,4.60,9.33,17.7,777.00,292.3
2020-02-02,17:35:00,DRY,3.40,9.45,17.5,777.00,272.5
2020-02-02,17:40:00,DRY,4.50,9.20,18.7,777.00,252.0
2020-02-02,17:45:00,DRY,3.55,9.10,19.5,777.00,231.4
2020-02-02,17:50:00,DRY,5.13,9.53,14.0,777.00,212.1
2020-02-02,17:55:00,DRY,4.00,9.55,13.0,777.00,193.3
2020-02-02,18:00:00,DRY,6.97,9.60,12.3,777.00,174.2
2020-02-02,18:05:00,DRY,6.60,9.50,13.0,777.00,156.6
2020-02-02,18:10:00,DRY,6.00,9.20,17.0,777.00,135.6
2020-02-02,18:15:00,DRY,5.55,9.35,12.5,777.00,109.7
2020-02-02,18:20:00,DRY,5.57,9.33,10.7,777.00,86.1
2020-02-02,18:25:00,DRY,4.85,9.45,11.0,777.00,65.0
2020-02-02,18:30:00,DRY,4.33,9.37,11.7,777.00,46.5
2020-02-02,18:35:00,DRY,6.25,9.35,12.0,777.00,31.4
2020-02-02,18:40:00,DRY,4.73,9.23,11.7,777.00,19.9
2020-02-02,18:45:00,DRY,6.60,9.05,12.0,777.00,15.2
2020-02-02,18:50:00,DRY,6.27,8.90,11.7,777.00,10.6
2020-02-02,18:55:00,DRY,4.70,8.65,12.0,777.00,5.5
2020-02-02,19:00:00,DRY,5.20,8.53,12.3,777.00,3.0
2020-02-02,19:05:00,DRY,5.05,8.55,10.5,777.00,1.9
2020-02-02,19:10:00,DRY,5.90,8.67,9.7,777.00,1.3
2020-02-02,19:15:00,DRY,6.05,8.75,9.5,777.00,1.2
2020-02-02,19:20:00,DRY,4.63,8.90,9.0,777.33,1.3
2020-02-02,19:25:00,DRY,3.30,8.95,9.0,777.00,1.3
2020-02-02,19:30:00,DRY,5.37,8.97,9.0,777.33,1.1
2020-02-02,19:35:00,DRY,5.60,8.95,9.0,778.00,1.1
2020-02-02,19:40:00,DRY,4.57,8.83,9.7,778.00,1.4
2020-02-02,19:45:00,DRY,4.40,9.10,8.5,778.00,1.6
2020-02-02,19:50:00,DRY,7.47,8.90,9.0,778.00,1.2
2020-02-02,19:55:00,DRY,5.10,8.90,9.0,778.00,1.4
2020-02-02,20:00:00,DRY,7.07,9.03,9.0,778.00,1.7
2020-02-02,20:05:00,DRY,4.85,9.00,9.5,778.00,1.4
2020-02-02,20:10:00,DRY,4.17,8.80,10.0,778.00,1.7
2020-02-02,20:15:00,DRY,5.15,8.90,10.0,778.00,1.2
2020-02-02,20:20:00,DRY,5.90,8.80,10.3,778.00,1.4
2020-02-02,20:25:00,DRY,7.10,9.00,10.0,778.00,0.8
2020-02-02,20:30:00,DRY,4.20,8.97,9.7,778.00,1.6
2020-02-02,20:35:00,DRY,5.40,9.05,9.0,778.00,1.5
2020-02-02,20:40:00,DRY,6.10,9.17,9.0,778.00,1.2
2020-02-02,20:45:00,DRY,6.50,9.25,9.0,778.00,1.4
2020-02-02,20:50:00,DRY,3.77,9.03,9.0,778.00,0.7
2020-02-02,20:55:00,DRY,6.90,9.00,9.5,778.00,0.9
2020-02-02,21:00:00,DRY,4.03,8.83,10.0,778.00,1.1
2020-02-02,21:05:00,DRY,5.40,8.90,10.0,778.00,1.6
2020-02-02,21:10:00,DRY,4.00,8.80,10.0,778.00,1.5
2020-02-02,21:15:00,DRY,3.05,8.75,10.0,778.00,0.9
2020-02-02,21:20:00,DRY,4.87,8.73,10.0,778.00,0.8
2020-02-02,21:25:00,DRY,4.50,8.75,10.0,778.00,1.1
2020-02-02,21:30:00,DRY,5.63,8.73,10.0,778.00,1.2
2020-02-02,21:35:00,DRY,3.75,8.90,10.0,778.00,1.1
2020-02-02,21:40:00,DRY,2.57,8.80,10.0,778.00,1.2
2020-02-02,21:45:00,DRY,4.45,8.70,10.0,778.00,1.1
2020-02-02,21:50:00,DRY,5.10,8.73,10.0,778.00,1.3
2020-02-02,21:55:00,DRY,3.70,8.95,10.0,778.00,1.3
2020-02-02,22:00:00,DRY,5.13,8.87,10.0,778.00,2.0
2020-02-02,22:05:00,DRY,3.95,8.80,10.0,778.00,1.9
2020-02-02,22:10:00,DRY,4.73,8.77,10.7,778.00,1.6
2020-02-02,22:15:00,DRY,3.45,8.75,10.0,778.00,1.2
2020-02-02,22:20:00,DRY,5.07,8.73,10.0,778.00,1.2
2020-02-02,22:25:00,DRY,6.00,8.75,10.0,778.00,1.2
2020-02-02,22:30:00,DRY,4.67,8.63,10.3,778.00,1.2
2020-02-02,22:35:00,DRY,3.15,8.55,10.5,778.00,1.4
2020-02-02,22:40:00,DRY,4.77,8.47,11.0,778.00,1.0
2020-02-02,22:45:00,DRY,5.50,8.20,11.0,778.00,1.1
2020-02-02,22:50:00,DRY,3.60,7.97,11.0,778.00,1.5
2020-02-02,22:55:00,DRY,3.80,8.00,11.0,778.00,1.3
2020-02-02,23:00:00,DRY,4.57,8.07,10.7,778.00,1.2
2020-02-02,23:05:00,DRY,4.50,8.10,10.0,778.00,0.9
2020-02-02,23:10:00,DRY,3.80,8.07,10.0,778.00,1.1
2020-02-02,23:15:00,DRY,3.85,8.10,10.0,778.00,1.1
2020-02-02,23:20:00,DRY,3.93,8.07,10.0,778.00,1.4
2020-02-02,23:25:00,DRY,4.40,7.95,10.0,778.00,1.2
2020-02-02,23:30:00,DRY,3.67,7.87,10.7,778.00,0.9
2020-02-02,23:35:00,DRY,3.65,7.75,11.0,778.00,0.7
2020-02-02,23:40:00,DRY,5.43,7.67,11.0,778.00,1.4
2020-02-02,23:45:00,DRY,5.00,7.70,11.0,778.00,1.5
2020-02-02,23:50:00,DRY,5.63,7.57,11.7,778.00,1.1
2020-02-02,23:55:00,DRY,5.35,7.65,11.0,778.00,1.6
2020-02-03,00:00:00,DRY,5.47,7.77,11.0,778.00,1.1
2020-02-03,00:05:00,DRY,4.50,7.80,11.0,778.00,1.4
2020-02-03,00:10:00,DRY,4.60,7.90,11.0,778.00,1.3
2020-02-03,00:15:00,DRY,4.50,7.75,11.0,778.00,1.4
2020-02-03,00:20:00,DRY,4.70,7.67,12.0,778.00,1.2
2020-02-03,00:25:00,DRY,5.25,7.70,12.0,778.00,1.4
2020-02-03,00:30:00,DRY,6.83,7.17,12.7,778.00,1.1
2020-02-03,00:35:00,DRY,8.65,7.30,12.0,778.00,1.0
2020-02-03,00:40:00,DRY,8.50,7.37,11.0,778.00,0.6
2020-02-03,00:45:00,DRY,8.25,7.15,12.0,778.00,1.4
2020-02-03,00:50:00,DRY,7.00,6.90,12.7,777.67,1.0
2020-02-03,00:55:00,DRY,6.80,6.75,14.5,777.00,1.2
2020-02-03,01:00:00,DRY,6.40,6.77,17.7,777.67,1.4
2020-02-03,01:05:00,DRY,9.35,6.65,19.5,777.00,0.9
2020-02-03,01:10:00,DRY,5.17,6.70,19.3,777.00,1.1
2020-02-03,01:15:00,DRY,6.35,6.65,20.0,777.50,1.2
2020-02-03,01:20:00,DRY,7.03,6.67,21.0,777.00,1.1
2020-02-03,01:25:00,DRY,4.20,6.70,21.0,777.00,2.2
2020-02-03,01:30:00,DRY,7.30,6.80,20.0,777.00,1.2
2020-02-03,01:35:00,DRY,7.25,6.70,21.0,777.00,1.2
2020-02-03,01:40:00,DRY,7.10,6.60,22.0,777.00,1.3
2020-02-03,01:45:00,DRY,8.15,6.60,22.5,777.00,1.1
2020-02-03,01:50:00,DRY,10.77,6.50,23.0,777.00,2.0
2020-02-03,01:55:00,DRY,6.75,6.55,23.0,777.00,1.1
2020-02-03,02:00:00,DRY,6.13,6.50,24.0,777.00,1.3
2020-02-03,02:05:00,DRY,8.50,6.50,24.5,776.00,1.1
2020-02-03,02:10:00,DRY,11.10,6.43,24.7,776.67,1.1
2020-02-03,02:15:00,DRY,9.05,6.45,25.0,776.00,1.0
2020-02-03,02:20:00,DRY,7.80,6.43,25.3,776.67,1.1
2020-02-03,02:25:00,DRY,8.85,6.35,25.0,776.00,1.1
2020-02-03,02:30:00,DRY,5.33,6.40,25.3,776.00,1.3
2020-02-03,02:35:00,DRY,7.85,6.35,26.0,776.00,0.9
2020-02-03,02:40:00,DRY,8.40,6.40,26.0,776.00,1.0
2020-02-03,02:45:00,DRY,8.00,6.40,26.0,776.00,1.1
2020-02-03,02:50:00,DRY,8.30,6.33,26.0,776.00,1.3
2020-02-03,02:55:00,DRY,5.00,6.40,26.0,776.00,1.2
2020-02-03,03:00:00,DRY,2.90,6.27,26.0,776.00,1.3
2020-02-03,03:05:00,DRY,2.30,6.30,26.0,776.00,1.9
2020-02-03,03:10:00,DRY,2.37,6.23,26.3,776.00,0.6
2020-02-03,03:15:00,DRY,4.60,6.20,27.0,776.00,1.0
2020-02-03,03:20:00,DRY,6.03,6.30,26.0,776.00,1.4
2020-02-03,03:25:00,DRY,4.95,6.40,26.0,776.00,1.2
2020-02-03,03:30:00,DRY,3.60,6.30,26.0,776.00,0.8
2020-02-03,03:35:00,DRY,3.00,6.25,26.0,776.00,0.7
2020-02-03,03:40:00,DRY,7.20,6.30,26.0,776.00,1.3
2020-02-03,03:45:00,DRY,3.00,6.30,26.0,776.00,3.0
2020-02-03,03:50:00,DRY,4.07,6.30,26.0,776.00,1.2
2020-02-03,03:55:00,DRY,6.65,6.30,26.0,776.00,1.1
2020-02-03,04:00:00,DRY,4.03,6.23,26.3,776.00,1.0
2020-02-03,04:05:00,DRY,4.30,6.35,26.0,776.00,1.1
2020-02-03,04:10:00,DRY,5.70,6.33,26.0,776.00,1.4
2020-02-03,04:15:00,DRY,10.50,6.35,26.5,775.50,1.2
2020-02-03,04:20:00,DRY,7.80,6.37,26.0,775.67,0.7
2020-02-03,04:25:00,DRY,6.40,6.35,26.0,776.00,1.1
2020-02-03,04:30:00,DRY,6.93,6.40,26.0,776.00,1.0
2020-02-03,04:35:00,DRY,11.80,6.45,26.0,776.00,1.2
2020-02-03,04:40:00,DRY,7.77,6.43,26.0,775.67,1.0
2020-02-03,04:45:00,DRY,9.90,6.45,25.0,775.50,0.6
2020-02-03,04:50:00,DRY,9.27,6.47,25.3,775.67,1.1
2020-02-03,04:55:00,DRY,9.75,6.45,24.5,776.00,2.2
2020-02-03,05:00:00,DRY,8.90,6.53,24.7,776.00,1.2
2020-02-03,05:05:00,DRY,6.90,6.45,25.0,776.00,1.3
2020-02-03,05:10:00,DRY,7.20,6.47,25.3,775.67,1.2
2020-02-03,05:15:00,DRY,6.65,6.50,25.5,776.00,2.0
2020-02-03,05:20:00,DRY,7.67,6.53,25.3,775.67,1.1
2020-02-03,05:25:00,DRY,8.35,6.60,24.0,776.00,1.5
2020-02-03,05:30:00,DRY,8.20,6.60,25.0,775.33,1.4
2020-02-03,05:35:00,DRY,6.95,6.55,25.5,775.00,1.3
2020-02-03,05:40:00,DRY,5.27,6.60,24.7,775.33,1.2
2020-02-03,05:45:00,DRY,7.20,6.55,25.5,776.00,0.9
2020-02-03,05:50:00,DRY,7.27,6.57,25.3,775.67,0.8
2020-02-03,05:55:00,DRY,7.15,6.55,25.0,776.00,1.4
2020-02-03,06:00:00,DRY,7.13,6.57,25.3,775.33,1.9
2020-02-03,06:05:00,DRY,7.20,6.55,25.0,776.00,1.1
2020-02-03,06:10:00,DRY,7.27,6.57,25.3,776.00,1.1
2020-02-03,06:15:00,DRY,7.65,6.60,24.5,776.00,1.2
2020-02-03,06:20:00,DRY,6.57,6.50,25.7,775.67,1.1
2020-02-03,06:25:00,DRY,6.00,6.60,25.0,775.50,1.1
2020-02-03,06:30:00,DRY,2.20,6.40,26.0,776.00,1.0
2020-02-03,06:35:00,DRY,2.70,6.40,26.0,776.00,1.8
2020-02-03,06:40:00,DRY,2.87,6.33,26.0,776.00,1.0
2020-02-03,06:45:00,DRY,3.10,6.35,26.0,776.00,1.1
2020-02-03,06:50:00,DRY,5.93,6.40,25.7,776.00,1.2
2020-02-03,06:55:00,DRY,2.60,6.35,26.0,776.00,1.1
2020-02-03,07:00:00,DRY,6.57,6.37,26.0,776.00,1.2
2020-02-03,07:05:00,DRY,3.35,6.45,26.0,776.00,1.6
2020-02-03,07:10:00,DRY,4.63,6.53,25.0,775.67,1.3
2020-02-03,07:15:00,DRY,5.25,6.40,25.0,776.00,1.0
2020-02-03,07:20:00,DRY,8.90,6.43,25.3,775.33,1.3
2020-02-03,07:25:00,DRY,11.30,6.35,26.0,775.00,0.9
2020-02-03,07:30:00,DRY,8.57,6.30,25.7,775.33,1.2
2020-02-03,07:35:00,DRY,8.70,6.40,25.0,775.00,1.4
2020-02-03,07:40:00,DRY,9.77,6.37,25.0,775.67,1.5
2020-02-03,07:45:00,DRY,5.90,6.40,25.0,776.00,2.1
2020-02-03,07:50:00,DRY,6.13,6.27,25.3,775.67,3.7
2020-02-03,07:55:00,DRY,5.85,6.30,25.5,775.00,5.3
2020-02-03,08:00:00,DRY,4.80,6.23,25.7,775.67,8.0
2020-02-03,08:05:00,DRY,8.25,6.30,25.0,775.50,11.1
2020-02-03,08:10:00,DRY,6.53,6.17,26.3,775.67,13.9
2020-02-03,08:15:00,DRY,8.65,6.20,26.0,776.00,17.0
2020-02-03,08:20:00,DRY,3.73,6.07,26.7,776.00,20.3
2020-02-03,08:25:00,DRY,4.20,6.35,25.0,776.00,22.6
2020-02-03,08:30:00,DRY,6.13,6.27,26.0,776.00,25.8
2020-02-03,08:35:00,DRY,6.90,6.40,26.0,775.50,134.0
2020-02-03,08:40:00,DRY,5.63,6.43,26.0,776.00,161.1
2020-02-03,08:45:00,DRY,8.45,6.45,26.0,776.00,181.6
2020-02-03,08:50:00,DRY,8.10,6.53,26.0,776.00,201.3
2020-02-03,08:55:00,DRY,8.30,6.60,26.0,776.00,222.6
2020-02-03,09:00:00,DRY,4.43,6.63,26.3,776.00,241.6
2020-02-03,09:05:00,DRY,4.05,6.75,26.0,776.00,262.6
2020-02-03,09:10:00,DRY,6.13,6.70,26.7,776.00,284.5
2020-02-03,09:15:00,DRY,5.80,6.85,26.5,776.00,303.8
2020-02-03,09:20:00,DRY,5.23,6.87,26.3,776.00,323.4
2020-02-03,09:25:00,DRY,9.10,6.95,25.5,776.00,345.0
2020-02-03,09:30:00,DRY,9.47,7.03,26.0,775.67,365.2
2020-02-03,09:35:00,DRY,7.35,7.00,26.5,776.00,383.1
2020-02-03,09:40:00,DRY,3.77,7.13,25.7,776.00,401.8
2020-02-03,09:45:00,DRY,4.05,7.20,26.5,776.00,423.3
2020-02-03,09:50:00,DRY,8.67,7.20,25.7,776.00,442.2
2020-02-03,09:55:00,DRY,7.90,7.15,26.5,776.00,460.9
2020-02-03,10:00:00,DRY,4.17,7.40,25.0,776.00,478.3
2020-02-03,10:05:00,DRY,6.45,7.60,24.5,776.00,497.4
2020-02-03,10:10:00,DRY,4.33,7.57,25.7,775.67,514.0
2020-02-03,10:15:00,DRY,7.05,7.45,26.0,776.00,531.9
2020-02-03,10:20:00,DRY,6.47,7.63,26.0,776.00,549.4
2020-02-03,10:25:00,DRY,6.65,7.70,24.0,776.00,566.2
2020-02-03,10:30:00,DRY,4.33,7.87,24.7,776.00,583.2
2020-02-03,10:35:00,DRY,2.65,7.95,23.0,776.00,598.2
2020-02-03,10:40:00,DRY,3.40,8.03,24.7,776.00,612.0
2020-02-03,10:45:00,DRY,4.75,7.95,23.5,776.00,630.1
2020-02-03,10:50:00,DRY,5.07,7.90,25.7,776.00,643.1
2020-02-03,10:55:00,DRY,2.90,8.20,24.5,776.00,660.9
2020-02-03,11:00:00,DRY,5.60,8.43,23.3,776.33,676.8
2020-02-03,11:05:00,DRY,4.40,8.30,23.5,776.00,686.9
2020-02-03,11:10:00,DRY,5.03,8.20,23.3,776.67,677.1
2020-02-03,11:15:00,DRY,7.10,8.65,23.0,776.50,714.0
2020-02-03,11:20:00,DRY,6.70,8.57,24.3,776.67,720.6
2020-02-03,11:25:00,DRY,5.65,8.55,24.5,777.00,729.0
2020-02-03,11:30:00,DRY,5.83,8.60,23.0,776.33,743.6
2020-02-03,11:35:00,DRY,8.45,8.25,23.5,776.00,753.4
2020-02-03,11:40:00,DRY,5.60,8.43,22.3,776.33,763.2
2020-02-03,11:45:00,DRY,4.90,8.75,22.0,776.00,773.0
2020-02-03,11:50:00,DRY,7.33,8.93,21.0,776.67,781.9
2020-02-03,11:55:00,DRY,6.05,8.85,22.0,776.00,792.1
2020-02-03,12:00:00,DRY,8.67,8.87,19.0,775.67,800.1
2020-02-03,12:05:00,DRY,4.35,9.20,20.0,776.00,807.2
2020-02-03,12:10:00,DRY,5.10,8.93,19.0,776.00,815.0
2020-02-03,12:15:00,DRY,5.45,9.40,20.0,776.50,822.9
2020-02-03,12:20:00,DRY,6.63,9.23,18.7,776.33,829.0
2020-02-03,12:25:00,DRY,1.80,9.35,19.0,776.00,836.4
2020-02-03,12:30:00,DRY,2.83,9.27,17.0,776.33,841.7
2020-02-03,12:35:00,DRY,5.35,9.30,18.5,776.00,845.5
2020-02-03,12:40:00,DRY,5.63,8.97,20.0,776.00,850.2
2020-02-03,12:45:00,DRY,5.80,9.10,20.5,776.00,854.2
2020-02-03,12:50:00,DRY,4.60,9.30,19.7,776.33,857.8
2020-02-03,12:55:00,DRY,9.55,9.45,19.0,776.00,860.9
2020-02-03,13:00:00,DRY,5.53,9.77,19.3,776.00,860.5
2020-02-03,13:05:00,DRY,8.00,9.50,19.5,776.00,863.4
2020-02-03,13:10:00,DRY,6.10,9.73,18.0,776.00,865.2
2020-02-03,13:15:00,DRY,2.50,9.75,19.0,776.00,868.5
2020-02-03,13:20:00,DRY,3.60,9.53,19.3,776.67,869.8
2020-02-03,13:25:00,DRY,2.30,9.85,20.0,776.00,866.9
2020-02-03,13:30:00,DRY,4.30,9.80,19.0,776.00,869.3
2020-02-03,13:35:00,DRY,1.50,9.60,18.0,776.00,864.8
2020-02-03,13:40:00,DRY,6.47,9.77,18.0,776.00,863.3
2020-02-03,13:45:00,DRY,4.55,9.95,17.5,776.00,862.6
2020-02-03,13:50:00,DRY,4.63,9.90,17.0,775.67,861.6
2020-02-03,13:55:00,DRY,5.65,9.65,17.0,776.00,857.3
2020-02-03,14:00:00,DRY,8.13,9.63,17.3,775.00,853.2
2020-02-03,14:05:00,DRY,4.90,9.70,17.0,776.00,850.2
2020-02-03,14:10:00,DRY,4.60,9.87,17.3,775.33,843.9
2020-02-03,14:15:00,DRY,6.90,10.30,14.5,775.50,838.0
2020-02-03,14:20:00,DRY,6.80,10.27,15.3,775.00,833.0
2020-02-03,14:25:00,DRY,5.10,10.10,16.0,775.00,828.1
2020-02-03,14:30:00,DRY,6.83,10.00,17.0,775.00,822.8
2020-02-03,14:35:00,DRY,7.25,10.20,16.5,775.00,815.5
2020-02-03,14:40:00,DRY,5.43,9.87,17.0,775.00,806.9
2020-02-03,14:45:00,DRY,3.80,9.95,17.5,775.00,799.3
2020-02-03,14:50:00,DRY,5.50,10.13,17.7,775.00,791.5
2020-02-03,14:55:00,DRY,3.40,10.15,17.5,775.00,782.5
2020-02-03,15:00:00,DRY,6.10,10.07,19.3,775.00,771.5
2020-02-03,15:05:00,DRY,5.15,10.10,19.0,775.00,762.8